Orbital Elements at Epoch 2459200.5 (2020-Dec-17.0) TDB
Reference: JPL 34 (heliocentric ecliptic J2000)
Element | Value | Uncertainty (1-sigma) | Units |
e | .1892040418416736 | 2.3673e-08 | |
a | 2.58560840567714 | 1.1793e-08 | au |
q | 2.096400844703219 | 6.5272e-08 | au |
i | 18.10940587796656 | 8.9166e-07 | deg |
node | 236.816558796397 | 3.2323e-06 | deg |
peri | 36.81761846554551 | 6.1233e-06 | deg |
M | 338.3584496751168 | 9.3978e-06 | deg |
tp | 2459291.791096080166 (2021-Mar-18.29109608) | 3.9965e-05 | TDB |
period | 1518.597054993423 4.16 | 1.0389e-05 2.844e-08 | d yr |
n | .2370609101448305 | 1.6218e-09 | deg/d |
Q | 3.07481596665106 | 1.4024e-08 | au |
|
| | Orbit Determination Parameters
Additional Information
|